TimeCST,TemperatureF,Dew PointF,Humidity,Sea Level PressureIn,VisibilityMPH,Wind Direction,Wind SpeedMPH,Gust SpeedMPH,PrecipitationIn,Events,Conditions,WindDirDegrees,DateUTC
12:52 AM,41.0,30.0,65,29.93,10.0,SW,11.5,-,N/A,,Clear,230,2013-01-19 06:52:00
1:52 AM,41.0,30.0,65,29.94,10.0,SW,10.4,-,N/A,,Clear,230,2013-01-19 07:52:00
2:52 AM,39.9,30.0,68,29.93,10.0,WSW,6.9,-,N/A,,Clear,240,2013-01-19 08:52:00
3:52 AM,39.0,30.0,70,29.91,10.0,SSW,10.4,-,N/A,,Clear,210,2013-01-19 09:52:00
4:52 AM,39.0,30.0,70,29.88,10.0,SW,11.5,-,N/A,,Clear,220,2013-01-19 10:52:00
5:52 AM,37.9,28.9,70,29.89,10.0,SW,6.9,-,N/A,,Clear,220,2013-01-19 11:52:00
6:52 AM,37.9,30.0,73,29.87,10.0,SSW,5.8,-,N/A,,Clear,210,2013-01-19 12:52:00
7:52 AM,39.0,30.0,70,29.87,10.0,SW,9.2,-,N/A,,Clear,230,2013-01-19 13:52:00
8:52 AM,41.0,30.9,67,29.87,10.0,WSW,11.5,-,N/A,,Clear,240,2013-01-19 14:52:00
9:52 AM,45.0,33.1,63,29.87,10.0,SW,16.1,-,N/A,,Clear,230,2013-01-19 15:52:00
10:52 AM,45.0,32.0,60,29.85,10.0,WSW,20.7,27.6,N/A,,Clear,250,2013-01-19 16:52:00
11:52 AM,46.0,33.1,61,29.81,10.0,WSW,12.7,-,N/A,,Partly Cloudy,240,2013-01-19 17:52:00
12:52 PM,48.9,34.0,56,29.80,10.0,WSW,18.4,27.6,N/A,,Clear,240,2013-01-19 18:52:00
1:52 PM,50.0,33.1,52,29.79,10.0,WSW,15.0,25.3,N/A,,Clear,240,2013-01-19 19:52:00
2:52 PM,52.0,33.1,49,29.79,10.0,WSW,13.8,-,N/A,,Clear,250,2013-01-19 20:52:00
3:52 PM,51.1,30.9,46,29.82,10.0,West,18.4,-,N/A,,Clear,270,2013-01-19 21:52:00
4:52 PM,48.0,30.9,52,29.84,10.0,West,16.1,-,N/A,,Clear,260,2013-01-19 22:52:00
5:52 PM,45.0,32.0,60,29.89,10.0,West,16.1,23.0,N/A,,Clear,270,2013-01-19 23:52:00
6:52 PM,44.1,30.9,60,29.91,10.0,West,16.1,-,N/A,,Clear,280,2013-01-20 00:52:00
7:52 PM,43.0,30.0,60,29.95,10.0,WNW,21.9,33.4,N/A,,Scattered Clouds,290,2013-01-20 01:52:00
8:52 PM,39.0,25.0,57,29.98,10.0,WNW,23.0,43.7,N/A,,Partly Cloudy,290,2013-01-20 02:52:00
9:52 PM,30.0,19.9,66,30.06,10.0,NW,19.6,35.7,N/A,,Clear,320,2013-01-20 03:52:00
10:52 PM,25.0,9.0,51,30.10,10.0,NW,24.2,38.0,N/A,,Clear,310,2013-01-20 04:52:00
11:52 PM,21.9,8.1,55,30.14,10.0,NW,26.5,36.8,N/A,,Clear,310,2013-01-20 05:52:00